When you browse on this site, cookies collect data to enhance your experience and personalize the content and advertising you see.
Visit our Privacy Policy to learn more. By continuing to use the site, you agree to this use of cookies and data.
  • In Hungary
  • List of Countries
  • For 7 days
  • Water Temperature
  • Weather Map
  • News
  • Weather Widgets
  • user-avatar
    Login

    Hourly Weather Ballycastle

    Today, 31 May, Sunday

    Time Temperature Precipitation Wind Pressure Humidity
    00:00 +11°C° 0 mm 6 mps 763 mmHg 84%
    01:00 +11°C° 0 mm 6 mps 763 mmHg 86%
    02:00 +11°C° 0 mm 6 mps 763 mmHg 88%
    03:00 +11°C° 0 mm 6 mps 764 mmHg 89%
    04:00 +11°C° 0 mm 6 mps 764 mmHg 88%
    05:00 +11°C° 0 mm 6 mps 764 mmHg 88%
    06:00 +13°C° 0 mm 6 mps 764 mmHg 87%
    07:00 +13°C° 0 mm 6 mps 764 mmHg 84%
    08:00 +14°C° 0 mm 6 mps 764 mmHg 81%
    09:00 +15°C° 0 mm 6 mps 764 mmHg 78%
    10:00 +15°C° 0 mm 6 mps 764 mmHg 74%
    11:00 +16°C° 0 mm 6 mps 764 mmHg 70%
    12:00 +16°C° 0 mm 6 mps 765 mmHg 67%
    13:00 +17°C° 0 mm 6 mps 765 mmHg 64%
    14:00 +17°C° 0 mm 5 mps 765 mmHg 62%
    15:00 +17°C° 0 mm 5 mps 765 mmHg 59%
    16:00 +18°C° 0 mm 4 mps 765 mmHg 62%
    17:00 +17°C° 0 mm 4 mps 764 mmHg 65%
    18:00 +17°C° 0 mm 3 mps 764 mmHg 68%
    19:00 +16°C° 0 mm 3 mps 765 mmHg 68%
    20:00 +13°C° 0 mm 3 mps 765 mmHg 68%
    21:00 +13°C° 0 mm 2 mps 765 mmHg 68%
    22:00 +13°C° 0 mm 2 mps 765 mmHg 68%
    23:00 +13°C° 0 mm 2 mps 766 mmHg 68%

    Tomorrow, 1 June, Monday

    Time Temperature Precipitation Wind Pressure Humidity
    00:00 +12°C° 0 mm 2 mps 766 mmHg 67%
    01:00 +11°C° 0 mm 3 mps 766 mmHg 74%
    02:00 +11°C° 0 mm 3 mps 766 mmHg 81%
    03:00 +11°C° 0 mm 4 mps 766 mmHg 88%
    04:00 +11°C° 0 mm 4 mps 766 mmHg 88%
    05:00 +12°C° 0 mm 4 mps 766 mmHg 88%
    06:00 +13°C° 0 mm 4 mps 766 mmHg 88%
    07:00 +14°C° 0 mm 4 mps 767 mmHg 85%
    08:00 +15°C° 0 mm 4 mps 767 mmHg 81%
    09:00 +17°C° 0 mm 4 mps 767 mmHg 78%
    10:00 +18°C° 0 mm 4 mps 767 mmHg 76%
    11:00 +19°C° 0 mm 4 mps 767 mmHg 73%
    12:00 +19°C° 0 mm 4 mps 767 mmHg 71%
    13:00 +19°C° 0 mm 4 mps 767 mmHg 69%
    14:00 +19°C° 0 mm 3 mps 767 mmHg 67%
    15:00 +20°C° 0 mm 3 mps 767 mmHg 66%
    16:00 +19°C° 0 mm 2 mps 766 mmHg 68%
    17:00 +19°C° 0 mm 2 mps 766 mmHg 70%
    18:00 +20°C° 0 mm 1 mps 766 mmHg 72%
    19:00 +18°C° 0 mm 1 mps 766 mmHg 76%
    20:00 +16°C° 0 mm 1 mps 766 mmHg 80%
    21:00 +14°C° 0 mm 1 mps 766 mmHg 84%
    22:00 +14°C° 0 mm 1 mps 766 mmHg 84%
    23:00 +13°C° 0 mm 1 mps 766 mmHg 83%

    Day after tomorrow, 2 June, Tuesday

    Time Temperature Precipitation Wind Pressure Humidity
    00:00 +13°C° 0 mm 1 mps 766 mmHg 83%
    01:00 +13°C° 0 mm 1 mps 766 mmHg 82%
    02:00 +13°C° 0 mm 1 mps 765 mmHg 81%
    03:00 +13°C° 0 mm 1 mps 765 mmHg 80%
    04:00 +13°C° 0 mm 1 mps 765 mmHg 80%
    05:00 +14°C° 0 mm 1 mps 765 mmHg 80%
    06:00 +15°C° 0 mm 1 mps 765 mmHg 80%
    07:00 +16°C° 0 mm 1 mps 765 mmHg 78%
    08:00 +18°C° 0 mm 1 mps 764 mmHg 76%
    09:00 +18°C° 0 mm 2 mps 764 mmHg 74%
    10:00 +18°C° 0.1 mm 2 mps 764 mmHg 74%
    11:00 +18°C° 0.1 mm 3 mps 763 mmHg 75%
    12:00 +18°C° 0.1 mm 4 mps 763 mmHg 75%
    13:00 +18°C° 0.1 mm 4 mps 762 mmHg 76%
    14:00 +18°C° 0.1 mm 4 mps 762 mmHg 76%
    15:00 +17°C° 0.1 mm 5 mps 761 mmHg 77%
    16:00 +16°C° 0 mm 5 mps 761 mmHg 79%
    17:00 +15°C° 0 mm 5 mps 760 mmHg 82%
    18:00 +15°C° 0 mm 5 mps 760 mmHg 84%
    19:00 +14°C° 0 mm 5 mps 760 mmHg 88%
    20:00 +13°C° 0 mm 5 mps 760 mmHg 92%
    21:00 +12°C° 0 mm 5 mps 760 mmHg 96%
    22:00 +10°C° 0 mm 5 mps 760 mmHg 95%
    23:00 +10°C° 0 mm 6 mps 759 mmHg 94%

    3 June, Wednesday

    Time Temperature Precipitation Wind Pressure Humidity
    00:00 +10°C° 0 mm 6 mps 759 mmHg 93%
    01:00 +10°C° 0.1 mm 6 mps 759 mmHg 94%
    02:00 +10°C° 0.1 mm 5 mps 759 mmHg 94%
    03:00 +11°C° 0.1 mm 4 mps 759 mmHg 94%
    04:00 +10°C° 0.1 mm 5 mps 759 mmHg 93%
    05:00 +10°C° 0.1 mm 6 mps 759 mmHg 92%
    06:00 +10°C° 0.1 mm 6 mps 759 mmHg 91%
    07:00 +10°C° 0 mm 6 mps 759 mmHg 87%
    08:00 +12°C° 0 mm 5 mps 759 mmHg 83%
    09:00 +12°C° 0 mm 5 mps 760 mmHg 80%
    10:00 +12°C° 0 mm 4 mps 760 mmHg 78%
    11:00 +13°C° 0 mm 4 mps 760 mmHg 76%
    12:00 +13°C° 0 mm 3 mps 760 mmHg 74%
    13:00 +13°C° 0 mm 3 mps 759 mmHg 74%
    14:00 +13°C° 0 mm 4 mps 759 mmHg 73%
    15:00 +13°C° 0 mm 4 mps 759 mmHg 73%
    16:00 +13°C° 0 mm 5 mps 759 mmHg 74%
    17:00 +12°C° 0 mm 5 mps 759 mmHg 75%
    18:00 +11°C° 0 mm 6 mps 758 mmHg 76%
    19:00 +10°C° 0 mm 6 mps 758 mmHg 80%
    20:00 +9°C° 0 mm 6 mps 758 mmHg 83%
    21:00 +8°C° 0 mm 6 mps 758 mmHg 86%
    22:00 +8°C° 0 mm 6 mps 758 mmHg 86%
    23:00 +8°C° 0 mm 6 mps 758 mmHg 87%

    4 June, Thursday

    Time Temperature Precipitation Wind Pressure Humidity
    00:00 +8°C° 0 mm 6 mps 758 mmHg 87%
    01:00 +7°C° 0 mm 6 mps 757 mmHg 88%
    02:00 +7°C° 0 mm 6 mps 757 mmHg 88%
    03:00 +7°C° 0 mm 6 mps 756 mmHg 89%
    04:00 +8°C° 0 mm 6 mps 756 mmHg 87%
    05:00 +8°C° 0 mm 6 mps 756 mmHg 84%
    06:00 +9°C° 0 mm 6 mps 756 mmHg 82%
    07:00 +9°C° 0 mm 6 mps 755 mmHg 82%
    08:00 +10°C° 0 mm 6 mps 755 mmHg 82%
    09:00 +10°C° 0 mm 6 mps 755 mmHg 82%
    10:00 +10°C° 0 mm 6 mps 755 mmHg 80%
    11:00 +11°C° 0 mm 6 mps 755 mmHg 79%
    12:00 +12°C° 0 mm 5 mps 755 mmHg 78%
    13:00 +12°C° 0 mm 5 mps 754 mmHg 78%
    14:00 +12°C° 0 mm 5 mps 754 mmHg 78%
    15:00 +13°C° 0 mm 5 mps 754 mmHg 78%
    16:00 +13°C° 0 mm 5 mps 753 mmHg 79%
    17:00 +11°C° 0 mm 6 mps 753 mmHg 80%
    18:00 +11°C° 0 mm 6 mps 753 mmHg 82%
    19:00 +11°C° 0 mm 6 mps 752 mmHg 83%
    20:00 +11°C° 0 mm 6 mps 752 mmHg 85%
    21:00 +11°C° 0 mm 6 mps 752 mmHg 86%
    22:00 +11°C° 0 mm 6 mps 751 mmHg 87%
    23:00 +11°C° 0 mm 7 mps 751 mmHg 88%

    5 June, Friday

    Time Temperature Precipitation Wind Pressure Humidity
    00:00 +11°C° 0 mm 7 mps 750 mmHg 89%
    01:00 +11°C° 0.1 mm 8 mps 750 mmHg 88%
    02:00 +11°C° 0.1 mm 8 mps 750 mmHg 87%
    03:00 +11°C° 0.1 mm 9 mps 749 mmHg 86%
    04:00 +10°C° 0.1 mm 9 mps 749 mmHg 85%
    05:00 +10°C° 0.1 mm 9 mps 749 mmHg 84%
    06:00 +8°C° 0.1 mm 9 mps 749 mmHg 83%
    07:00 +8°C° 0.1 mm 9 mps 749 mmHg 80%
    08:00 +8°C° 0.1 mm 9 mps 750 mmHg 77%
    09:00 +8°C° 0.1 mm 9 mps 750 mmHg 74%
    10:00 +10°C° 0 mm 9 mps 750 mmHg 72%
    11:00 +10°C° 0 mm 9 mps 751 mmHg 70%
    12:00 +10°C° 0 mm 9 mps 751 mmHg 68%
    13:00 +10°C° 0 mm 9 mps 751 mmHg 69%
    14:00 +10°C° 0 mm 9 mps 751 mmHg 69%
    15:00 +10°C° 0 mm 9 mps 751 mmHg 70%
    16:00 +10°C° 0.1 mm 9 mps 752 mmHg 72%
    17:00 +9°C° 0.1 mm 8 mps 752 mmHg 73%
    18:00 +9°C° 0.1 mm 8 mps 752 mmHg 75%
    19:00 +8°C° 0.1 mm 7 mps 752 mmHg 78%
    20:00 +8°C° 0.1 mm 7 mps 753 mmHg 82%
    21:00 +7°C° 0.1 mm 6 mps 753 mmHg 85%
    22:00 +7°C° 0.1 mm 6 mps 753 mmHg 85%
    23:00 +5°C° 0.1 mm 6 mps 753 mmHg 85%
    Show more